Home > Weather > Chilliwack > Past weeks

Flag for Canada Weather for the Past 2 Weeks in Chilliwack, British Columbia, Canada

Now
43 °F

Quite cool.


Feels Like: 43 °F
Forecast: 44 / 53 °F
Wind: 2 mph from Northwest

Location: Agassiz

Current Time: Feb 10, 2016 at 9:56:35 PM

Latest Report: Feb 10, 2016 at 9:00 PM


Visibility: N/A

Pressure: 30.29 "Hg

Humidity: 97%

Dew point: 42 °F

Location of ChilliwackLocation

Historic Weather in Chilliwack — Graph

°F

Chilliwack Temperature Yesterday

Maximum temperature yesterday: 57 °F (at 3:00 PM)
Minimum temperature yesterday: 49 °F (at 8:00 AM)
Average temperature yesterday: 52 °F

High & Low Weather Summary for the Past Weeks

 TemperatureHumidityPressure
High57 °F (Feb 8, 3:00 PM)100% (Jan 31, 6:00 AM)30.64 "Hg (Jan 31, 6:00 AM)
Low34 °F (Feb 1, 10:00 PM)46% (Feb 9, 2:00 PM)29.58 "Hg (Jan 29, 12:00 PM)
Average44 °F82%30.15 "Hg
* Reported Jan 26 8:00 PM — Feb 10 8:00 PM, Chilliwack, Weather by CustomWeather, © 2016

Note: Actual official high and low records may vary slightly from our data, if they occured in-between our weather recording intervals... More about our weather records

Advertising

Chilliwack Weather History for the Previous 24 Hours

 ConditionsComfort  
Time TempWeatherWind HumidityBarometerVisibility
8:00 PM
Wed, Feb 10
45 °FQuite cool.1 mph97%30.27 "HgN/A
7:00 PM44 °FQuite cool.2 mph100%30.25 "HgN/A
6:00 PM45 °FQuite cool.1 mph90%30.23 "HgN/A
5:00 PM46 °FCool.2 mph93%30.21 "HgN/A
4:00 PM46 °FCool.3 mph93%30.18 "HgN/A
3:00 PM46 °FCool.1 mph93%30.18 "HgN/A
2:00 PM46 °FCool.1 mph93%30.18 "HgN/A
1:00 PM46 °FCool.1 mph93%30.18 "HgN/A
12:00 PM45 °FCool.2 mph90%30.20 "HgN/A
11:00 AM46 °FCool.5 mph83%30.18 "HgN/A
10:00 AM47 °FCool.6 mph75%30.12 "HgN/A
9:00 AM46 °FCool.8 mph79%30.12 "HgN/A
8:00 AM50 °FCool.7 mph67%30.09 "HgN/A
7:00 AM47 °FCool.10 mph69%30.07 "HgN/A
6:00 AM48 °FCool.10 mph66%30.07 "HgN/A
5:00 AM47 °FCool.2 mph68%30.08 "HgN/A
4:00 AM46 °FCool.5 mph70%30.11 "HgN/A
3:00 AM47 °FCool.3 mph70%30.13 "HgN/A
2:00 AM49 °FCool.2 mph65%30.11 "HgN/A
1:00 AM44 °FQuite cool.2 mph81%30.12 "HgN/A
12:00 AM47 °FCool.3 mph69%30.11 "HgN/A
11:00 PM
Tue, Feb 9
49 °FCool.3 mph67%30.12 "HgN/A
10:00 PM50 °FCool.3 mph65%30.12 "HgN/A
9:00 PM51 °FCool.3 mph63%30.12 "HgN/A
Weather by CustomWeather, © 2016

See weather overviewHow to use our weather pages